User: anonymous   Login
Location: Caltech
(34.1382°N, 118.1253°W)
Time: 02:08:21
(UTC-07:00)
Language:

Aureole 3 Rocket - Orbit

View from above orbital plane
View from above orbital plane
View from above satellite
View from above satellite

Ground track
Ground track

The orbit data is extracted from the following two-line orbital elements,

1 12849U 81094B   15143.15853048  .00000624  00000-0  58655-4 0  9999
2 12849 082.4953 026.5506 0905991 286.6343 063.7306 13.49196036639933
Epoch (UTC): 23 May 2015 03:48:17
Eccentricity: 0.0905991
inclination: 82.4953°
perigee height: 400 km
apogee height: 1750 km
right ascension of ascending node: 26.5506°
argument of perigee: 286.6343°
revolutions per day: 13.49196036
mean anomaly at epoch: 63.7306°
orbit number at epoch: 63993

The dashed part of the orbit path shows where the satellite is in the earth's shadow,  

DLR